STARLINK-1659

Last updated on Fri Nov 06 2020 00:02:03 GMT+0000 (Coordinated Universal Time)

1 46534U 20070C 20310.83334491 -.01089399 00000-0 -18383-1 0 9997 2 46534 53.0014 293.1655 0001125 67.3142 308.1809 15.53823337 5587

Satellite not in orbit

STARLINK-1659